| time (UTC) | temp F | wind direction | speed knots | gust knots | rain 1hr in | rain 24hr in | rain mn in | humidity % | barometer mb |
| 20260507170005 | 53 | 80 | 0.9 | 7.8 | 0.15 | 1.44 | 1.44 | 92 | 1012.1 |
| 20260507165506 | 54 | 84 | 4.3 | 7.8 | 0.17 | 1.43 | 1.43 | 92 | 1011.7 |
| 20260507165005 | 54 | 51 | 3.5 | 10.4 | 0.19 | 1.43 | 1.43 | 92 | 1011.7 |
| 20260507164516 | 54 | 92 | 5.2 | 10.4 | 0.19 | 1.42 | 1.42 | 92 | 1011.4 |
| 20260507164007 | 54 | 71 | 3.5 | 7.8 | 0.19 | 1.41 | 1.41 | 93 | 1011.4 |
| 20260507163510 | 54 | 324 | 2.6 | 7.8 | 0.19 | 1.40 | 1.40 | 93 | 1011.2 |
| 20260507163003 | 54 | 83 | 1.7 | 7.8 | 0.19 | 1.38 | 1.38 | 1011.4 | |
| 20260507162510 | 54 | 36 | 2.6 | 7.8 | 0.20 | 1.37 | 1.37 | 93 | 1011.2 |
| 20260507162008 | 54 | 85 | 1.7 | 8.7 | 0.24 | 1.37 | 1.37 | 93 | 1011.4 |
| 20260507161507 | 54 | 83 | 0.9 | 10.4 | 0.25 | 1.35 | 1.35 | 92 | 1011.6 |
| 20260507161008 | 55 | 95 | 1.7 | 10.4 | 0.27 | 1.33 | 1.33 | 92 | 1011.7 |
| 20260507160509 | 55 | 75 | 1.7 | 7.0 | 0.28 | 1.31 | 1.31 | 93 | 1011.9 |
| 20260507160022 | 55 | 96 | 2.6 | 7.0 | 0.29 | 1.29 | 1.29 | 93 | 1011.6 |
| 20260507155513 | 55 | 326 | 0.9 | 7.0 | 0.28 | 1.26 | 1.26 | 93 | 1011.6 |
| 20260507155003 | 55 | 52 | 1.7 | 9.6 | 0.27 | 1.24 | 1.24 | 93 | 1011.5 |
| 20260507154506 | 55 | 82 | 3.5 | 11.3 | 0.27 | 1.23 | 1.23 | 92 | 1011.2 |
| 20260507154008 | 54 | 138 | 3.5 | 11.3 | 0.27 | 1.22 | 1.22 | 92 | 1010.6 |
| 20260507153505 | 55 | 107 | 1.7 | 7.0 | 0.26 | 1.21 | 1.21 | 1011.1 | |
| 20260507153029 | 54 | 104 | 3.5 | 7.8 | 0.24 | 1.19 | 1.19 | 92 | 1011.7 |
| 20260507152506 | 54 | 103 | 2.6 | 7.8 | 0.23 | 1.16 | 1.16 | 92 | 1011.7 |
| 20260507152009 | 54 | 14 | 1.7 | 11.3 | 0.19 | 1.13 | 1.13 | 92 | 1011.8 |
| 20260507151524 | 54 | 348 | 1.7 | 11.3 | 0.17 | 1.10 | 1.10 | 91 | 1011.9 |
| 20260507151004 | 54 | 115 | 2.6 | 9.6 | 0.13 | 1.05 | 1.05 | 91 | 1012.1 |
| 20260507150504 | 55 | 108 | 2.6 | 8.7 | 0.10 | 1.03 | 1.03 | 91 | 1012.2 |
| 20260507150011 | 55 | 308 | 1.7 | 9.6 | 0.07 | 1.00 | 1.00 | 91 | 1012.2 |
| 20260507145508 | 55 | 86 | 3.5 | 10.4 | 0.05 | 0.98 | 0.98 | 91 | 1012.1 |
| 20260507145010 | 55 | 52 | 1.7 | 10.4 | 0.04 | 0.97 | 0.97 | 91 | 1011.9 |
| 20260507144520 | 56 | 360 | 1.7 | 12.2 | 0.03 | 0.96 | 0.96 | 90 | 1011.7 |
| 20260507144010 | 56 | 352 | 3.5 | 12.2 | 0.02 | 0.95 | 0.95 | 91 | 1011.7 |
| 20260507143510 | 57 | 20 | 1.7 | 7.8 | 0.02 | 0.95 | 0.95 | 91 | 1011.7 |
| 20260507143027 | 57 | 84 | 0.9 | 13.9 | 0.02 | 0.95 | 0.95 | 91 | 1011.6 |
| 20260507142504 | 57 | 330 | 2.6 | 13.9 | 0.01 | 0.94 | 0.94 | 91 | 1011.5 |
| 20260507142009 | 57 | 87 | 3.5 | 13.9 | 0.01 | 0.94 | 0.94 | 91 | 1011.4 |
| 20260507141516 | 58 | 72 | 2.6 | 7.0 | 0.00 | 0.93 | 0.93 | 91 | 1011.4 |
| 20260507141008 | 58 | 101 | 0.9 | 8.7 | 0.00 | 0.93 | 0.93 | 92 | 1011.3 |
| 20260507140507 | 58 | 63 | 1.7 | 10.4 | 0.00 | 0.93 | 0.93 | 92 | 1011.3 |
| 20260507140023 | 59 | 73 | 3.5 | 10.4 | 0.00 | 0.93 | 0.93 | 92 | 1011.2 |
| 20260507135507 | 59 | 96 | 3.5 | 8.7 | 0.01 | 0.93 | 0.93 | 93 | 1011.2 |
| 20260507135011 | 59 | 82 | 2.6 | 7.0 | 0.03 | 0.93 | 0.93 | 92 | 1011.2 |
| 20260507134507 | 59 | 328 | 0.9 | 6.1 | 0.03 | 0.93 | 0.93 | 92 | 1011.1 |
| 20260507134004 | 58 | 352 | 0.9 | 8.7 | 0.04 | 0.93 | 0.93 | 92 | 1011.0 |
| 20260507133508 | 59 | 81 | 1.7 | 8.7 | 0.04 | 0.93 | 0.93 | 92 | 1011.0 |
| 20260507133019 | 59 | 60 | 2.6 | 7.0 | 0.04 | 0.93 | 0.93 | 92 | 1011.0 |
| 20260507132510 | 59 | 344 | 1.7 | 7.0 | 0.04 | 0.93 | 0.93 | 92 | 1010.9 |
| 20260507132010 | 59 | 33 | 0.9 | 7.0 | 0.05 | 0.93 | 0.93 | 92 | 1010.9 |
| 20260507131528 | 59 | 336 | 1.7 | 5.2 | 0.05 | 0.93 | 0.93 | 92 | 1010.9 |
| 20260507131010 | 59 | 62 | 0.9 | 5.2 | 0.06 | 0.93 | 0.93 | 92 | 1010.9 |
| 20260507130506 | 59 | 344 | 1.7 | 5.2 | 0.08 | 0.93 | 0.93 | 93 | 1011.0 |
| 20260507130022 | 59 | 16 | 1.7 | 7.8 | 0.09 | 0.93 | 0.93 | 92 | 1011.2 |
| 20260507125508 | 59 | 360 | 0.9 | 11.3 | 0.08 | 0.92 | 0.92 | 92 | 1011.3 |
| 20260507125008 | 59 | 333 | 1.7 | 11.3 | 0.07 | 0.90 | 0.90 | 92 | 1011.5 |
| 20260507124528 | 59 | 10 | 0.9 | 9.6 | 0.08 | 0.90 | 0.90 | 92 | 1011.3 |
| 20260507124010 | 59 | 11 | 2.6 | 9.6 | 0.11 | 0.89 | 0.89 | 92 | 1011.2 |
| 20260507123511 | 59 | 15 | 2.6 | 8.7 | 0.12 | 0.89 | 0.89 | 92 | 1011.2 |
| 20260507123027 | 59 | 344 | 2.6 | 8.7 | 0.13 | 0.89 | 0.89 | 92 | 1011.2 |
| 20260507122504 | 59 | 67 | 1.7 | 7.0 | 0.14 | 0.89 | 0.89 | 92 | 1011.2 |
| 20260507122006 | 59 | 18 | 1.7 | 10.4 | 0.15 | 0.88 | 0.88 | 92 | 1011.2 |
| 20260507121516 | 59 | 9 | 1.7 | 10.4 | 0.17 | 0.88 | 0.88 | 92 | 1011.3 |
| 20260507121007 | 59 | 338 | 2.6 | 9.6 | 0.16 | 0.87 | 0.87 | 92 | 1011.3 |
| 20260507120511 | 59 | 348 | 1.7 | 9.6 | 0.15 | 0.85 | 0.85 | 92 | 1011.3 |
| 20260507120024 | 59 | 5 | 1.7 | 9.6 | 0.15 | 0.84 | 0.84 | 92 | 1011.5 |
| 20260507115509 | 59 | 345 | 2.6 | 11.3 | 0.16 | 0.84 | 0.84 | 92 | 1011.5 |
| 20260507115011 | 60 | 29 | 4.3 | 11.3 | 0.15 | 0.83 | 0.83 | 92 | 1011.3 |
| 20260507114512 | 60 | 65 | 4.3 | 8.7 | 0.16 | 0.82 | 0.82 | 92 | 1011.2 |
| 20260507114014 | 61 | 360 | 1.7 | 13.9 | 0.12 | 0.78 | 0.78 | 92 | 1011.1 |
| 20260507113507 | 61 | 360 | 4.3 | 13.9 | 0.13 | 0.77 | 0.77 | 91 | 1011.1 |
| 20260507113019 | 63 | 9 | 2.6 | 11.3 | 0.15 | 0.76 | 0.76 | 91 | 1010.8 |
| 20260507112508 | 65 | 321 | 3.5 | 6.1 | 0.22 | 0.75 | 0.75 | 93 | 1010.6 |
| 20260507112010 | 65 | 294 | 0.0 | 3.5 | 0.27 | 0.73 | 0.73 | 93 | 1010.4 |
| 20260507111527 | 65 | 242 | 1.7 | 3.5 | 0.29 | 0.71 | 0.71 | 93 | 1010.7 |
| 20260507111010 | 65 | 257 | 0.9 | 3.5 | 0.35 | 0.71 | 0.71 | 93 | 1010.5 |
| 20260507110506 | 65 | 270 | 1.7 | 3.5 | 0.39 | 0.70 | 0.70 | 92 | 1010.3 |
| 20260507110015 | 65 | 237 | 0.9 | 1.7 | 0.51 | 0.69 | 0.69 | 92 | 1010.3 |
| 20260507105508 | 65 | 189 | 0.9 | 3.5 | 0.63 | 0.68 | 0.68 | 92 | 1010.3 |
| 20260507105006 | 65 | 293 | 1.7 | 5.2 | 0.65 | 0.68 | 0.68 | 92 | 1010.2 |
| 20260507104522 | 65 | 263 | 2.6 | 5.2 | 0.64 | 0.66 | 0.66 | 92 | 1010.2 |
| 20260507104010 | 65 | 290 | 2.6 | 6.1 | 0.64 | 0.66 | 0.66 | 92 | 1010.2 |
| 20260507103510 | 65 | 309 | 0.9 | 6.1 | 0.62 | 0.64 | 0.64 | 92 | 1010.0 |
| 20260507103030 | 65 | 216 | 0.9 | 6.1 | 0.58 | 0.61 | 0.61 | 92 | 1010.0 |
| 20260507102510 | 65 | 257 | 1.7 | 6.1 | 0.51 | 0.52 | 0.52 | 92 | 1010.1 |
| 20260507102007 | 65 | 236 | 1.7 | 6.1 | 0.44 | 0.46 | 0.46 | 91 | 1010.0 |
| 20260507101518 | 66 | 256 | 0.9 | 2.6 | 0.40 | 0.42 | 0.42 | 91 | 1009.8 |
| 20260507101008 | 66 | 302 | 0.9 | 3.5 | 0.34 | 0.36 | 0.36 | 91 | 1009.9 |
| 20260507100508 | 66 | 323 | 0.9 | 5.2 | 0.30 | 0.31 | 0.31 | 90 | 1009.9 |
| 20260507100033 | 66 | 342 | 1.7 | 5.2 | 0.17 | 0.18 | 0.18 | 89 | 1009.9 |
| 20260507095509 | 66 | 295 | 0.9 | 5.2 | 0.04 | 0.05 | 0.05 | 89 | 1009.5 |
| 20260507095014 | 66 | 242 | 1.7 | 5.2 | 0.02 | 0.03 | 0.03 | 89 | 1009.4 |
| 20260507094529 | 66 | 216 | 0.9 | 2.6 | 0.01 | 0.02 | 0.02 | 89 | 1009.1 |
| 20260507094007 | 66 | 192 | 0.0 | 1.7 | 0.01 | 0.02 | 0.02 | 88 | 1009.0 |
| 20260507093507 | 66 | 205 | 0.9 | 3.5 | 0.01 | 0.02 | 0.02 | 88 | 1009.1 |
| 20260507093022 | 66 | 259 | 0.0 | 4.3 | 0.01 | 0.02 | 0.02 | 88 | 1009.1 |
| 20260507092513 | 66 | 181 | 0.0 | 7.0 | 0.01 | 0.02 | 0.02 | 87 | 1009.1 |
| 20260507092011 | 67 | 238 | 2.6 | 7.0 | 0.01 | 0.02 | 0.02 | 87 | 1009.2 |
| 20260507091529 | 67 | 288 | 1.7 | 10.4 | 0.01 | 0.02 | 0.02 | 86 | 1009.3 |
| 20260507091007 | 67 | 252 | 1.7 | 10.4 | 0.01 | 0.02 | 0.02 | 85 | 1009.1 |
| 20260507090514 | 68 | 193 | 3.5 | 9.6 | 0.00 | 0.01 | 0.01 | 83 | 1009.4 |
| 20260507090022 | 68 | 279 | 4.3 | 9.6 | 0.00 | 0.01 | 0.01 | 82 | 1009.4 |
| 20260507085509 | 68 | 222 | 2.6 | 8.7 | 0.00 | 0.01 | 0.01 | 82 | 1009.3 |
| 20260507085009 | 68 | 155 | 3.5 | 8.7 | 0.00 | 0.01 | 0.01 | 82 | 1009.4 |
| 20260507084523 | 68 | 188 | 4.3 | 12.2 | 0.00 | 0.01 | 0.01 | 81 | 1009.5 |
| 20260507084008 | 68 | 234 | 4.3 | 12.2 | 0.00 | 0.01 | 0.01 | 81 | 1009.5 |
| 20260507083513 | 68 | 303 | 6.1 | 11.3 | 0.00 | 0.01 | 0.01 | 81 | 1009.6 |
| 20260507083030 | 68 | 230 | 3.5 | 9.6 | 0.00 | 0.01 | 0.01 | 81 | 1009.6 |
| 20260507082503 | 68 | 230 | 2.6 | 7.8 | 0.00 | 0.01 | 0.01 | 81 | 1009.5 |
| 20260507082003 | 68 | 259 | 3.5 | 10.4 | 0.00 | 0.01 | 0.01 | 81 | 1009.6 |
| 20260507081507 | 68 | 198 | 2.6 | 10.4 | 0.00 | 0.01 | 0.01 | 80 | 1009.7 |
| 20260507081003 | 68 | 257 | 4.3 | 11.3 | 0.00 | 0.01 | 0.01 | 80 | 1009.8 |
| 20260507080504 | 68 | 241 | 3.5 | 11.3 | 0.00 | 0.01 | 0.01 | 80 | 1009.8 |
| 20260507080005 | 68 | 227 | 2.6 | 7.0 | 0.00 | 0.01 | 0.01 | 81 | 1010.0 |
| 20260507075503 | 68 | 207 | 2.6 | 7.0 | 0.00 | 0.01 | 0.01 | 80 | 1010.0 |
| 20260507075006 | 68 | 250 | 3.5 | 8.7 | 0.00 | 0.01 | 0.01 | 80 | 1010.2 |
| 20260507074511 | 68 | 261 | 3.5 | 8.7 | 0.00 | 0.01 | 0.01 | 80 | 1010.3 |
| 20260507074007 | 68 | 209 | 3.5 | 6.1 | 0.00 | 0.01 | 0.01 | 81 | 1010.2 |
| 20260507073507 | 68 | 280 | 2.6 | 6.1 | 0.00 | 0.01 | 0.01 | 81 | 1010.1 |
| 20260507073013 | 68 | 199 | 2.6 | 8.7 | 0.01 | 0.01 | 0.01 | 81 | 1010.0 |
| 20260507072504 | 68 | 223 | 2.6 | 8.7 | 0.01 | 0.01 | 0.01 | 82 | 1010.0 |
| 20260507072008 | 68 | 227 | 4.3 | 8.7 | 0.01 | 0.01 | 0.01 | 82 | 1010.0 |
| 20260507071534 | 68 | 263 | 3.5 | 6.1 | 0.01 | 0.01 | 0.01 | 82 | 1010.0 |
| 20260507071006 | 68 | 181 | 0.9 | 7.8 | 0.01 | 0.01 | 0.01 | 82 | 1009.9 |
| 20260507070509 | 67 | 250 | 1.7 | 7.8 | 0.01 | 0.01 | 0.01 | 82 | 1009.9 |
| 20260507070014 | 67 | 251 | 1.7 | 8.7 | 0.01 | 0.01 | 0.01 | 83 | 1009.9 |
| 20260507065506 | 67 | 281 | 3.5 | 8.7 | 0.01 | 0.01 | 0.01 | 83 | 1009.8 |
| 20260507065006 | 67 | 202 | 0.9 | 6.1 | 0.01 | 0.01 | 0.01 | 83 | 1009.7 |
| 20260507064508 | 67 | 250 | 2.6 | 6.1 | 0.01 | 0.01 | 0.01 | 83 | 1009.6 |
| 20260507064005 | 67 | 189 | 0.9 | 6.1 | 0.01 | 0.01 | 0.01 | 83 | 1009.5 |
| 20260507063506 | 67 | 246 | 1.7 | 5.2 | 0.01 | 0.01 | 0.01 | 82 | 1009.4 |
| 20260507063015 | 68 | 240 | 0.9 | 4.3 | 0.00 | 0.00 | 0.00 | 80 | 1009.3 |
| 20260507062511 | 68 | 147 | 1.7 | 4.3 | 0.00 | 0.00 | 0.00 | 80 | 1009.5 |
| 20260507062007 | 68 | 226 | 1.7 | 7.8 | 0.00 | 0.00 | 0.00 | 80 | 1009.9 |
| 20260507061517 | 68 | 173 | 1.7 | 7.8 | 0.00 | 0.00 | 0.00 | 80 | 1010.1 |
| 20260507061007 | 68 | 207 | 2.6 | 7.0 | 0.00 | 0.00 | 0.00 | 80 | 1010.6 |
| 20260507060503 | 68 | 198 | 2.6 | 7.0 | 0.00 | 0.00 | 0.00 | 80 | 1010.9 |
| 20260507060008 | 68 | 192 | 1.7 | 6.1 | 0.00 | 0.00 | 0.00 | 80 | 1011.0 |
| 20260507055506 | 68 | 284 | 1.7 | 6.1 | 0.00 | 0.00 | 0.00 | 79 | 1011.0 |
| 20260507055009 | 68 | 257 | 3.5 | 7.8 | 0.00 | 0.00 | 0.00 | 79 | 1011.0 |
| 20260507054516 | 69 | 246 | 3.5 | 7.8 | 0.00 | 0.00 | 0.00 | 78 | 1011.1 |
| 20260507054009 | 69 | 234 | 3.5 | 6.1 | 0.00 | 0.00 | 0.00 | 77 | 1011.1 |
| 20260507053506 | 69 | 267 | 1.7 | 7.8 | 0.00 | 0.00 | 0.00 | 77 | 1011.1 |
| 20260507053015 | 69 | 221 | 1.7 | 7.8 | 0.00 | 0.00 | 0.00 | 77 | 1011.2 |
| 20260507052507 | 69 | 244 | 2.6 | 6.1 | 0.00 | 0.00 | 0.00 | 76 | 1011.2 |
| 20260507052004 | 69 | 267 | 0.9 | 7.8 | 0.00 | 0.00 | 0.00 | 76 | 1011.2 |
| 20260507051527 | 69 | 224 | 4.3 | 9.6 | 0.00 | 0.00 | 0.00 | 75 | 1011.3 |
| 20260507051009 | 69 | 250 | 3.5 | 9.6 | 0.00 | 0.00 | 0.00 | 75 | 1011.3 |
| 20260507050507 | 70 | 197 | 1.7 | 7.0 | 0.00 | 0.00 | 0.00 | 75 | 1011.2 |
| 20260507050022 | 70 | 238 | 2.6 | 6.1 | 0.00 | 0.00 | 0.00 | 74 | 1011.0 |
| 20260507045510 | 70 | 182 | 1.7 | 6.1 | 0.00 | 0.00 | 0.00 | 72 | 1010.9 |
| 20260507045007 | 70 | 240 | 0.9 | 4.3 | 0.00 | 0.00 | 0.00 | 71 | 1010.8 |
| 20260507044508 | 70 | 217 | 1.7 | 3.5 | 0.00 | 0.00 | 0.00 | 71 | 1010.9 |
| 20260507044007 | 70 | 205 | 0.9 | 5.2 | 0.00 | 0.00 | 0.00 | 71 | 1010.8 |
| 20260507043506 | 70 | 229 | 0.0 | 5.2 | 0.00 | 0.00 | 0.00 | 71 | 1010.9 |
| 20260507043018 | 70 | 174 | 1.7 | 4.3 | 0.00 | 0.00 | 0.00 | 71 | 1011.1 |
| 20260507042506 | 70 | 284 | 0.0 | 5.2 | 0.00 | 0.00 | 0.00 | 71 | 1011.1 |
| 20260507042007 | 70 | 234 | 2.6 | 5.2 | 0.00 | 0.00 | 0.00 | 71 | 1011.1 |
| 20260507041518 | 70 | 209 | 2.6 | 5.2 | 0.00 | 0.00 | 0.00 | 71 | 1011.1 |
| 20260507041007 | 71 | 157 | 0.9 | 6.1 | 0.00 | 0.00 | 0.00 | 70 | 1011.0 |
| 20260507040507 | 71 | 186 | 0.9 | 6.1 | 0.00 | 0.00 | 0.00 | 70 | 1010.8 |
| 20260507040014 | 71 | 220 | 2.6 | 6.1 | 0.00 | 0.00 | 0.00 | 70 | 1010.9 |
| 20260507035504 | 70 | 223 | 2.6 | 5.2 | 0.00 | 0.00 | 0.00 | 71 | 1011.0 |
| 20260507035005 | 70 | 225 | 0.9 | 5.2 | 0.00 | 0.00 | 0.00 | 71 | 1010.8 |
| 20260507034531 | 70 | 206 | 0.9 | 5.2 | 0.00 | 0.00 | 0.00 | 71 | 1010.6 |
| 20260507034007 | 70 | 143 | 0.0 | 2.6 | 0.00 | 0.00 | 0.00 | 71 | 1010.2 |
| 20260507033508 | 70 | 213 | 0.0 | 2.6 | 0.00 | 0.00 | 0.00 | 70 | 1010.4 |
| 20260507033033 | 70 | 239 | 0.9 | 2.6 | 0.00 | 0.00 | 0.00 | 70 | 1010.6 |
| 20260507032509 | 70 | 213 | 0.9 | 3.5 | 0.00 | 0.00 | 0.00 | 71 | 1010.4 |
| 20260507032010 | 70 | 231 | 1.7 | 3.5 | 0.00 | 0.00 | 0.00 | 71 | 1010.4 |
| 20260507031518 | 70 | 187 | 0.0 | 2.6 | 0.00 | 0.00 | 0.00 | 70 | 1010.3 |
| 20260507031008 | 70 | 246 | 0.0 | 2.6 | 0.00 | 0.00 | 0.00 | 70 | 1010.6 |
| 20260507030506 | 71 | 226 | 0.9 | 2.6 | 0.00 | 0.00 | 0.00 | 69 | 1010.8 |
| 20260507030026 | 71 | 252 | 0.9 | 2.6 | 0.00 | 0.00 | 0.00 | 69 | 1011.0 |
| 20260507025509 | 71 | 208 | 0.9 | 2.6 | 0.00 | 0.00 | 0.00 | 69 | 1011.1 |
| 20260507025010 | 71 | 247 | 0.9 | 3.5 | 0.00 | 0.00 | 0.00 | 69 | 1011.1 |
| 20260507024522 | 71 | 242 | 0.9 | 4.3 | 0.00 | 0.00 | 0.00 | 69 | 1011.1 |
| 20260507024006 | 71 | 186 | 0.9 | 4.3 | 0.00 | 0.00 | 0.00 | 69 | 1011.2 |
| 20260507023505 | 71 | 142 | 0.0 | 4.3 | 0.00 | 0.00 | 0.00 | 69 | 1011.3 |
| 20260507023027 | 71 | 206 | 0.9 | 3.5 | 0.00 | 0.00 | 0.00 | 69 | 1011.3 |
| 20260507022507 | 71 | 161 | 0.9 | 2.6 | 0.00 | 0.00 | 0.00 | 69 | 1011.2 |
| 20260507022007 | 71 | 162 | 0.9 | 2.6 | 0.00 | 0.00 | 0.00 | 69 | 1011.2 |
| 20260507021523 | 71 | 170 | 0.0 | 3.5 | 0.00 | 0.00 | 0.00 | 69 | 1011.2 |
| 20260507021010 | 70 | 138 | 0.9 | 3.5 | 0.00 | 0.00 | 0.00 | 69 | 1011.1 |
| 20260507020507 | 71 | 175 | 0.9 | 4.3 | 0.00 | 0.00 | 0.00 | 68 | 1011.2 |
| 20260507020018 | 71 | 203 | 0.9 | 3.5 | 0.00 | 0.00 | 0.00 | 68 | 1011.3 |
| 20260507015506 | 71 | 200 | 0.9 | 2.6 | 0.00 | 0.00 | 0.00 | 68 | 1011.3 |
| 20260507015012 | 71 | 216 | 0.0 | 2.6 | 0.00 | 0.00 | 0.00 | 67 | 1011.3 |
| 20260507014521 | 71 | 176 | 0.9 | 2.6 | 0.00 | 0.00 | 0.00 | 67 | 1011.3 |
| 20260507014008 | 71 | 190 | 0.0 | 2.6 | 0.00 | 0.00 | 0.00 | 66 | 1011.2 |
| 20260507013508 | 72 | 192 | 1.7 | 2.6 | 0.00 | 0.00 | 0.00 | 66 | 1011.1 |
| 20260507013024 | 72 | 265 | 1.7 | 2.6 | 0.00 | 0.00 | 0.00 | 66 | 1011.0 |
| 20260507012509 | 72 | 167 | 0.9 | 2.6 | 0.00 | 0.00 | 0.00 | 66 | 1010.9 |
| 20260507012012 | 72 | 187 | 0.0 | 4.3 | 0.00 | 0.00 | 0.00 | 65 | 1011.1 |
| 20260507011520 | 72 | 211 | 0.0 | 4.3 | 0.00 | 0.00 | 0.00 | 64 | 1011.0 |
| 20260507011009 | 73 | 226 | 1.7 | 5.2 | 0.00 | 0.00 | 0.00 | 64 | 1011.1 |
| 20260507010508 | 73 | 211 | 0.9 | 6.1 | 0.00 | 0.00 | 0.00 | 63 | 1011.0 |
| 20260507010025 | 73 | 243 | 1.7 | 6.1 | 0.00 | 0.00 | 0.00 | 62 | 1011.1 |
| 20260507005510 | 73 | 226 | 1.7 | 4.3 | 0.00 | 0.00 | 0.00 | 62 | 1011.2 |
| 20260507005010 | 74 | 239 | 2.6 | 4.3 | 0.00 | 0.00 | 0.00 | 61 | 1011.2 |
| 20260507004514 | 74 | 232 | 1.7 | 4.3 | 0.00 | 0.00 | 0.00 | 61 | 1011.1 |
| 20260507004007 | 74 | 220 | 1.7 | 4.3 | 0.00 | 0.00 | 0.00 | 61 | 1011.1 |
| 20260507003510 | 74 | 227 | 1.7 | 7.0 | 0.00 | 0.00 | 0.00 | 61 | 1010.9 |
| 20260507003022 | 74 | 192 | 2.6 | 7.0 | 0.00 | 0.00 | 0.00 | 60 | 1010.8 |
| 20260507002503 | 74 | 223 | 0.9 | 4.3 | 0.00 | 0.00 | 0.00 | 60 | 1010.9 |
| 20260507002002 | 75 | 229 | 0.9 | 5.2 | 0.00 | 0.00 | 0.00 | 59 | 1010.9 |
| 20260507001511 | 75 | 207 | 1.7 | 5.2 | 0.00 | 0.00 | 0.00 | 59 | 1010.8 |
| 20260507001006 | 75 | 241 | 2.6 | 5.2 | 0.00 | 0.00 | 0.00 | 59 | 1010.8 |
| 20260507000507 | 75 | 252 | 2.6 | 7.8 | 0.00 | 0.00 | 0.00 | 58 | 1010.6 |
| 20260507000018 | 75 | 277 | 3.5 | 7.8 | 0.00 | 0.00 | 0.00 | 58 | 1010.6 |
| 20260506235507 | 75 | 259 | 2.6 | 8.7 | 0.00 | 0.00 | 0.00 | 58 | 1010.6 |
| 20260506235009 | 76 | 236 | 2.6 | 7.8 | 0.00 | 0.00 | 0.00 | 57 | 1010.6 |
| 20260506234506 | 76 | 265 | 3.5 | 7.0 | 0.00 | 0.00 | 0.00 | 57 | 1010.6 |
| 20260506234005 | 76 | 261 | 2.6 | 7.0 | 0.00 | 0.00 | 0.00 | 57 | 1010.4 |
| 20260506233506 | 76 | 223 | 2.6 | 7.8 | 0.00 | 0.00 | 0.00 | 56 | 1010.4 |
| 20260506233014 | 76 | 271 | 3.5 | 7.8 | 0.00 | 0.00 | 0.00 | 56 | 1010.2 |
| 20260506232507 | 76 | 227 | 3.5 | 7.8 | 0.00 | 0.00 | 0.00 | 56 | 1010.1 |
| 20260506232006 | 76 | 243 | 1.7 | 9.6 | 0.00 | 0.00 | 0.00 | 56 | 1010.1 |
| 20260506231523 | 77 | 278 | 6.1 | 9.6 | 0.00 | 0.00 | 0.00 | 56 | 1010.0 |
| 20260506231007 | 77 | 226 | 1.7 | 7.8 | 0.00 | 0.00 | 0.00 | 56 | 1010.0 |
| 20260506230502 | 77 | 224 | 2.6 | 7.8 | 0.00 | 0.00 | 0.00 | 56 | 1010.1 |
| 20260506230007 | 77 | 186 | 1.7 | 7.8 | 0.00 | 0.00 | 0.00 | 56 | 1010.0 |
| 20260506225507 | 77 | 195 | 2.6 | 7.8 | 0.00 | 0.00 | 0.00 | 56 | 1010.0 |
| 20260506225006 | 77 | 211 | 2.6 | 8.7 | 0.00 | 0.00 | 0.00 | 56 | 1009.9 |
| 20260506224517 | 77 | 226 | 4.3 | 8.7 | 0.00 | 0.00 | 0.00 | 56 | 1010.0 |
| 20260506224009 | 77 | 211 | 3.5 | 8.7 | 0.00 | 0.00 | 0.00 | 56 | 1010.1 |
| 20260506223513 | 77 | 257 | 2.6 | 8.7 | 0.00 | 0.00 | 0.00 | 56 | 1010.2 |
| 20260506223023 | 78 | 210 | 2.6 | 8.7 | 0.00 | 0.00 | 0.00 | 56 | 1010.1 |
| 20260506222503 | 78 | 239 | 3.5 | 7.8 | 0.00 | 0.00 | 0.00 | 56 | 1010.1 |
| 20260506222008 | 78 | 234 | 2.6 | 14.8 | 0.00 | 0.00 | 0.00 | 56 | 1010.1 |
| 20260506221512 | 78 | 227 | 2.6 | 14.8 | 0.00 | 0.00 | 0.00 | 56 | 1010.1 |
| 20260506221005 | 78 | 276 | 3.5 | 13.9 | 0.00 | 0.00 | 0.00 | 56 | 1010.1 |
| 20260506220508 | 78 | 185 | 4.3 | 13.9 | 0.00 | 0.00 | 0.00 | 56 | 1010.1 |
| 20260506220031 | 78 | 209 | 4.3 | 13.9 | 0.00 | 0.00 | 0.00 | 56 | 1010.1 |
| 20260506215509 | 78 | 168 | 3.5 | 10.4 | 0.00 | 0.00 | 0.00 | 56 | 1009.9 |
| 20260506215009 | 78 | 165 | 3.5 | 12.2 | 0.00 | 0.00 | 0.00 | 56 | 1009.8 |
| 20260506214507 | 78 | 221 | 4.3 | 12.2 | 0.00 | 0.00 | 0.00 | 56 | 1009.9 |
| 20260506214004 | 78 | 184 | 5.2 | 10.4 | 0.00 | 0.00 | 0.00 | 56 | 1010.0 |
| 20260506213506 | 78 | 190 | 5.2 | 12.2 | 0.00 | 0.00 | 0.00 | 55 | 1010.0 |
| 20260506213016 | 78 | 237 | 6.1 | 12.2 | 0.00 | 0.00 | 0.00 | 55 | 1010.0 |
| 20260506212506 | 78 | 197 | 4.3 | 12.2 | 0.00 | 0.00 | 0.00 | 55 | 1010.0 |
| 20260506212008 | 78 | 240 | 2.6 | 13.9 | 0.00 | 0.00 | 0.00 | 55 | 1009.9 |
| 20260506211523 | 78 | 155 | 5.2 | 13.9 | 0.00 | 0.00 | 0.00 | 54 | 1009.7 |
| 20260506211010 | 78 | 207 | 4.3 | 13.0 | 0.00 | 0.00 | 0.00 | 54 | 1009.7 |
| 20260506210503 | 78 | 169 | 3.5 | 13.0 | 0.00 | 0.00 | 0.00 | 54 | 1009.8 |
| 20260506210013 | 78 | 243 | 5.2 | 12.2 | 0.00 | 0.00 | 0.00 | 55 | 1010.0 |
| 20260506205508 | 78 | 315 | 3.5 | 12.2 | 0.00 | 0.00 | 0.00 | 56 | 1010.0 |
| 20260506205007 | 78 | 174 | 3.5 | 13.9 | 0.00 | 0.00 | 0.00 | 55 | 1010.1 |
| 20260506204520 | 78 | 305 | 3.5 | 13.9 | 0.00 | 0.00 | 0.00 | 56 | 1010.1 |
| 20260506204012 | 78 | 233 | 1.7 | 8.7 | 0.00 | 0.00 | 0.00 | 56 | 1010.1 |
| 20260506203507 | 78 | 202 | 2.6 | 13.9 | 0.00 | 0.00 | 0.00 | 55 | 1010.2 |
| 20260506203029 | 78 | 173 | 3.5 | 13.9 | 0.00 | 0.00 | 0.00 | 54 | 1010.4 |
| 20260506202511 | 78 | 216 | 6.1 | 11.3 | 0.00 | 0.00 | 0.00 | 54 | 1010.5 |
| 20260506202012 | 78 | 140 | 3.5 | 12.2 | 0.00 | 0.00 | 0.00 | 54 | 1010.6 |
| 20260506201512 | 78 | 326 | 5.2 | 14.8 | 0.00 | 0.00 | 0.00 | 55 | 1010.6 |
| 20260506201007 | 78 | 201 | 4.3 | 15.6 | 0.00 | 0.00 | 0.00 | 56 | 1010.8 |
| 20260506200506 | 78 | 217 | 6.1 | 15.6 | 0.00 | 0.00 | 0.00 | 58 | 1010.8 |
| 20260506200023 | 78 | 252 | 6.1 | 16.5 | 0.00 | 0.00 | 0.00 | 58 | 1011.0 |
| 20260506195509 | 78 | 161 | 5.2 | 16.5 | 0.00 | 0.00 | 0.00 | 58 | 1011.2 |
| 20260506195011 | 78 | 247 | 5.2 | 13.0 | 0.00 | 0.00 | 0.00 | 58 | 1011.2 |
| 20260506194527 | 78 | 198 | 5.2 | 13.0 | 0.00 | 0.00 | 0.00 | 58 | 1011.4 |
| 20260506194006 | 78 | 265 | 6.1 | 17.4 | 0.00 | 0.00 | 0.00 | 58 | 1011.5 |
| 20260506193509 | 78 | 200 | 4.3 | 17.4 | 0.00 | 0.00 | 0.00 | 57 | 1011.6 |
| 20260506193018 | 78 | 221 | 5.2 | 13.0 | 0.00 | 0.00 | 0.00 | 58 | 1011.7 |
| 20260506192507 | 79 | 246 | 4.3 | 11.3 | 0.00 | 0.00 | 0.00 | 58 | 1011.7 |
| 20260506192012 | 79 | 182 | 4.3 | 11.3 | 0.00 | 0.00 | 0.00 | 58 | 1011.7 |
| 20260506191524 | 78 | 241 | 5.2 | 12.2 | 0.00 | 0.00 | 0.00 | 59 | 1011.8 |
| 20260506191010 | 78 | 220 | 5.2 | 12.2 | 0.00 | 0.00 | 0.00 | 59 | 1011.8 |
| 20260506190515 | 77 | 244 | 4.3 | 13.0 | 0.00 | 0.00 | 0.00 | 60 | 1011.7 |
| 20260506190020 | 77 | 265 | 2.6 | 12.2 | 0.00 | 0.00 | 0.00 | 60 | 1011.8 |
| 20260506185508 | 76 | 238 | 4.3 | 12.2 | 0.00 | 0.00 | 0.00 | 60 | 1011.9 |
| 20260506185011 | 76 | 212 | 4.3 | 12.2 | 0.00 | 0.00 | 0.00 | 60 | 1012.0 |
| 20260506184523 | 76 | 202 | 4.3 | 14.8 | 0.00 | 0.00 | 0.00 | 59 | 1012.0 |
| 20260506184013 | 77 | 236 | 6.1 | 14.8 | 0.00 | 0.00 | 0.00 | 59 | 1012.0 |
| 20260506183509 | 77 | 116 | 2.6 | 15.6 | 0.00 | 0.00 | 0.00 | 59 | 1012.0 |
| 20260506183028 | 77 | 185 | 7.0 | 19.1 | 0.00 | 0.00 | 0.00 | 59 | 1012.1 |
| 20260506182507 | 77 | 163 | 6.1 | 19.1 | 0.00 | 0.00 | 0.00 | 59 | 1012.2 |
| 20260506182006 | 77 | 159 | 6.1 | 18.2 | 0.00 | 0.00 | 0.00 | 59 | 1012.3 |
| 20260506181520 | 77 | 252 | 6.1 | 12.2 | 0.00 | 0.00 | 0.00 | 59 | 1012.3 |
| 20260506181008 | 76 | 106 | 4.3 | 17.4 | 0.00 | 0.00 | 0.00 | 59 | 1012.4 |
| 20260506180510 | 76 | 250 | 4.3 | 17.4 | 0.00 | 0.00 | 0.00 | 59 | 1012.5 |
| 20260506180025 | 76 | 142 | 7.0 | 13.0 | 0.00 | 0.00 | 0.00 | 60 | 1012.7 |
| 20260506175513 | 76 | 229 | 4.3 | 13.0 | 0.00 | 0.00 | 0.00 | 59 | 1012.7 |
| 20260506175017 | 77 | 284 | 5.2 | 13.0 | 0.00 | 0.00 | 0.00 | 58 | 1012.8 |
| 20260506174527 | 77 | 231 | 3.5 | 13.9 | 0.00 | 0.00 | 0.00 | 58 | 1013.0 |
| 20260506174004 | 77 | 232 | 3.5 | 13.9 | 0.00 | 0.00 | 0.00 | 58 | 1013.2 |
| 20260506173511 | 76 | 171 | 1.7 | 13.9 | 0.00 | 0.00 | 0.00 | 59 | 1013.3 |
| 20260506173022 | 76 | 218 | 3.5 | 13.9 | 0.00 | 0.00 | 0.00 | 60 | 1013.3 |
| 20260506172506 | 75 | 219 | 3.5 | 12.2 | 0.00 | 0.00 | 0.00 | 61 | 1013.2 |
| 20260506172009 | 75 | 180 | 4.3 | 13.0 | 0.00 | 0.00 | 0.00 | 62 | 1013.5 |
| 20260506171525 | 74 | 227 | 2.6 | 13.0 | 0.00 | 0.00 | 0.00 | 63 | 1013.7 |
| 20260506171009 | 74 | 254 | 4.3 | 15.6 | 0.00 | 0.00 | 0.00 | 63 | 1013.6 |
| 20260506170510 | 74 | 165 | 4.3 | 15.6 | 0.00 | 0.00 | 0.00 | 63 | 1013.6 |